CDT,Max TemperatureF,Mean TemperatureF,Min TemperatureF,Max Dew PointF,MeanDew PointF,Min DewpointF,Max Humidity, Mean Humidity, Min Humidity, Max Sea Level PressureIn, Mean Sea Level PressureIn, Min Sea Level PressureIn, Max VisibilityMiles, Mean VisibilityMiles, Min VisibilityMiles, Max Wind SpeedMPH, Mean Wind SpeedMPH, Max Gust SpeedMPH,PrecipitationIn, CloudCover, Events, WindDirDegrees
2013-4-1,44,37,29,27,20,15,75,53,31,30.28,30.19,30.02,10,10,10,23,12,30,0.00,2,,337
2013-4-2,48,35,22,24,18,11,81,53,25,30.37,30.32,30.28,10,10,9,15,6,22,0.00,0,Snow,345
2013-4-3,50,37,24,23,19,16,81,55,29,30.44,30.35,30.27,10,10,10,14,6,18,0.00,0,,75
2013-4-4,59,46,32,28,24,21,64,45,25,30.26,30.14,30.04,10,10,10,9,4,13,0.00,0,,129
2013-4-5,63,49,34,35,31,27,89,58,27,30.20,30.10,29.99,10,10,7,14,7,20,0.00,0,,70
2013-4-6,73,61,49,48,39,34,57,44,31,29.98,29.79,29.66,10,10,4,31,14,41,0.00,2,,193
2013-4-7,74,59,44,53,42,39,83,56,29,29.92,29.84,29.74,10,10,5,17,6,22,0.05,1,Rain,135
2013-4-8,73,64,54,60,56,49,86,74,61,29.82,29.74,29.63,10,8,1,16,7,21,0.74,6,Rain-Thunderstorm,183
2013-4-9,77,69,61,62,58,55,87,72,57,29.83,29.78,29.73,10,10,10,25,11,35,0.00,5,,174
2013-4-10,69,58,47,61,49,44,96,83,70,29.92,29.77,29.64,10,6,2,30,12,36,1.39,8,Rain-Thunderstorm,46
2013-4-11,50,44,37,48,38,28,100,85,70,29.71,29.67,29.64,10,9,2,21,12,26,0.03,8,Rain,243
2013-4-12,43,40,36,34,31,28,76,71,65,29.99,29.83,29.67,10,10,10,20,12,29,T,8,,260
2013-4-13,55,45,34,38,32,26,76,61,46,30.05,29.97,29.89,10,10,2,21,10,23,0.02,4,Rain-Thunderstorm,241
2013-4-14,78,62,46,54,46,39,77,53,28,29.86,29.67,29.52,10,9,2,30,14,41,0.36,3,Rain-Thunderstorm,169
2013-4-15,57,50,42,55,48,37,100,81,61,30.01,29.83,29.71,10,8,1,20,8,24,0.25,8,Rain-Thunderstorm,289
2013-4-16,50,45,39,40,38,34,82,72,61,30.19,30.13,29.98,10,10,3,17,11,21,0.16,8,Rain-Thunderstorm,31
2013-4-17,59,52,45,56,47,39,96,81,66,30.16,29.90,29.64,10,6,1,22,15,28,0.30,8,Rain-Thunderstorm,66
2013-4-18,63,51,38,61,49,28,100,85,70,29.76,29.61,29.48,10,6,1,35,16,52,2.69,8,Rain-Thunderstorm,237
2013-4-19,47,40,33,29,26,24,75,60,45,30.08,29.84,29.72,10,10,10,30,16,37,0.00,7,,280
2013-4-20,51,39,27,31,26,21,92,63,34,30.33,30.25,30.09,10,10,10,12,5,16,0.00,1,,344
2013-4-21,62,51,40,42,36,30,70,56,42,30.39,30.30,30.23,10,10,10,21,13,28,0.00,2,,140
2013-4-22,69,57,44,46,38,33,71,50,29,30.24,30.11,29.96,10,10,10,17,8,24,T,3,,156
2013-4-23,58,48,37,47,38,35,92,77,62,30.07,30.00,29.93,10,7,2,21,12,26,0.44,8,Rain,349
2013-4-24,51,43,35,34,30,27,92,67,41,30.21,30.14,30.04,10,10,2,18,11,23,0.03,4,Rain,287
2013-4-25,60,50,39,36,32,30,79,56,32,30.33,30.26,30.18,10,10,9,21,9,25,0.00,0,,257
2013-4-26,61,54,46,46,41,34,77,64,51,30.32,30.27,30.23,10,10,10,23,11,30,0.00,5,,180
2013-4-27,53,50,46,50,47,43,96,88,80,30.27,30.10,29.97,10,7,2,10,6,14,0.07,7,Rain,84
2013-4-28,63,57,50,51,49,47,93,79,64,29.96,29.93,29.87,10,5,0,10,7,15,0.00,6,Fog,292
2013-4-29,81,64,47,60,54,45,93,69,45,29.89,29.79,29.68,10,10,8,21,12,26,0.00,0,,168
2013-4-30,84,75,65,59,55,48,78,55,32,29.91,29.79,29.70,10,10,10,24,12,31,0.00,0,,193